Nantucket, MA

8:16 AM EST on December 03, 2016 (GMT -0500)
Nantucket Memorial

Weather History for KACK - November, 2014

Change the Weather History Date:

Friday, November 14, 2014

  Actual Average Record
Temperature  
Mean Temperature 44 °F -  
Max Temperature 48 °F 51 °F 63 °F (1951)
Min Temperature 37 °F 40 °F 30 °F (1956)
Degree Days  
Heating Degree Days 22    
Moisture  
Dew Point 33 °F    
Average Humidity 71    
Maximum Humidity 89    
Minimum Humidity 47    
Precipitation  
Precipitation 0.27 in - - ()
Sea Level Pressure  
Sea Level Pressure 29.90 in    
Wind  
Wind Speed 14 mph (NNW)    
Max Wind Speed 21 mph    
Max Gust Speed 29 mph    
Visibility 10 miles    
Events Rain    
Averages and records for this station are not official NWS values.
T = Trace of Precipitation, MM = Missing Value Source: NWS Daily Summary

Daily Weather History Graph

Daily Weather History Graph

Search for Another Location

Airport or City:

Trip Planner

Search our weather history database for the weather conditions in past years. The results will help you decide how hot, cold, wet, or windy it might be!

Date:

Astronomy

Nov. 14, 2014 Rise Set
Actual Time 6:27 AM EST 4:21 PM EST
Civil Twilight 5:57 AM EST 4:51 PM EST
Nautical Twilight 5:24 AM EST 5:24 PM EST
Astronomical Twilight 4:51 AM EST 5:57 PM EST
Moon 11:33 PM EST (11/14) 12:16 PM EST (11/14)
Length of Visible Light 10h 53m
Length of Day
9h 54m
Waning Gibbous, 49% of the Moon is Illuminated
Nov 14
Waning Gibbous
Nov 22
New
Nov 29
First Quarter
Dec 6
Full
Dec 14
Last Quarter

Hourly Weather History & Observations

Time (EST) Temp. Windchill Dew Point Humidity Pressure Visibility Wind Dir Wind Speed Gust Speed Precip Events Conditions
12:31 AM 48.0 °F - 37.0 °F 66% 29.88 in 10.0 mi NNW 6.9 mph - N/A   Overcast
12:53 AM 46.9 °F - 36.0 °F 66% 29.89 in 10.0 mi NNW 15.0 mph - N/A   Overcast
1:53 AM 45.0 °F 38.9 °F 37.9 °F 76% 29.88 in 9.0 mi NNW 12.7 mph - 0.02 in Rain Light Rain
2:53 AM 44.1 °F 38.6 °F 39.0 °F 82% 29.87 in 10.0 mi NNW 10.4 mph - 0.05 in Rain Light Rain
3:36 AM 43.0 °F 35.1 °F 39.0 °F 86% 29.85 in 9.0 mi NNW 17.3 mph - 0.01 in Rain Light Rain
3:50 AM 42.8 °F 34.8 °F 37.4 °F 81% 29.85 in 9.0 mi NNW 17.3 mph - 0.02 in Rain Light Rain
3:53 AM 43.0 °F 35.7 °F 37.9 °F 82% 29.86 in 9.0 mi NNW 15.0 mph - 0.02 in Rain Light Rain
4:01 AM 43.0 °F 34.8 °F 37.9 °F 82% 29.86 in 10.0 mi NNW 18.4 mph - 0.00 in Rain Light Rain
4:30 AM 42.1 °F 35.2 °F 37.9 °F 85% 29.85 in 6.0 mi NNW 12.7 mph - 0.04 in Rain Rain
4:49 AM 41.0 °F 32.8 °F 37.4 °F 87% 29.84 in 8.0 mi North 16.1 mph - 0.06 in Rain Rain
4:53 AM 41.0 °F 33.1 °F 37.9 °F 89% 29.84 in 9.0 mi North 15.0 mph - 0.06 in Rain Light Rain
5:53 AM 41.0 °F 32.5 °F 36.0 °F 82% 29.85 in 10.0 mi North 17.3 mph 24.2 mph 0.04 in Rain Light Rain
6:53 AM 39.9 °F 31.1 °F 36.0 °F 86% 29.84 in 10.0 mi North 17.3 mph - 0.03 in Rain Light Rain
7:53 AM 39.9 °F 30.8 °F 36.0 °F 86% 29.83 in 10.0 mi North 18.4 mph - 0.03 in Rain Light Rain
8:53 AM 41.0 °F 32.2 °F 36.0 °F 82% 29.85 in 8.0 mi NNW 18.4 mph - 0.02 in Rain Light Rain
9:14 AM 39.9 °F 30.5 °F 37.0 °F 89% 29.85 in 9.0 mi NW 19.6 mph 28.8 mph 0.00 in   Overcast
9:25 AM 39.9 °F 31.1 °F 36.0 °F 86% 29.84 in 10.0 mi NNW 17.3 mph 27.6 mph 0.00 in   Overcast
9:53 AM 41.0 °F 32.8 °F 36.0 °F 82% 29.86 in 10.0 mi NW 16.1 mph 24.2 mph 0.00 in   Overcast
10:53 AM 41.0 °F 32.2 °F 36.0 °F 82% 29.88 in 10.0 mi NW 18.4 mph 26.5 mph N/A   Overcast
11:14 AM 43.0 °F 34.5 °F 37.0 °F 80% 29.87 in 10.0 mi NW 19.6 mph 26.5 mph N/A   Overcast
11:53 AM 42.1 °F 33.1 °F 35.1 °F 76% 29.87 in 10.0 mi NW 20.7 mph 28.8 mph N/A   Overcast
12:53 PM 42.1 °F 33.3 °F 34.0 °F 73% 29.87 in 10.0 mi NW 19.6 mph 27.6 mph N/A   Overcast
1:53 PM 43.0 °F 34.5 °F 32.0 °F 65% 29.89 in 10.0 mi NNW 19.6 mph - 0.00 in   Overcast
2:53 PM 44.1 °F 37.4 °F 28.9 °F 55% 29.91 in 10.0 mi NNW 13.8 mph - N/A   Mostly Cloudy
3:53 PM 43.0 °F 36.8 °F 26.1 °F 51% 29.93 in 10.0 mi NW 11.5 mph - N/A   Scattered Clouds
4:53 PM 42.1 °F 35.7 °F 24.1 °F 49% 29.95 in 10.0 mi NW 11.5 mph - N/A   Mostly Cloudy
5:53 PM 42.1 °F 35.2 °F 23.0 °F 47% 29.98 in 10.0 mi NW 12.7 mph - N/A   Overcast
6:53 PM 39.9 °F 32.9 °F 21.0 °F 47% 30.01 in 10.0 mi NW 11.5 mph - N/A   Partly Cloudy
7:53 PM 39.9 °F 31.4 °F 21.9 °F 49% 30.03 in 10.0 mi NW 16.1 mph 24.2 mph N/A   Clear
8:53 PM 39.0 °F 30.3 °F 21.0 °F 49% 30.05 in 10.0 mi NW 16.1 mph - N/A   Clear
9:53 PM 39.0 °F 31.0 °F 21.0 °F 49% 30.06 in 10.0 mi NW 13.8 mph 20.7 mph N/A   Clear
10:53 PM 39.0 °F 31.8 °F 21.9 °F 50% 30.06 in 10.0 mi NW 11.5 mph - N/A   Clear
11:53 PM 37.9 °F 28.2 °F 23.0 °F 55% 30.07 in 10.0 mi NW 18.4 mph - N/A   Clear